Regional Weather Roundup
Issued by NWS

Home | Current Version | Previous Version | Text Only | Print | Product List | Glossary On
Versions: 1 2 3 4 5 6 7 8 9 10 11 12 13 14 15 16 17 18 19 20 21 22 23 24 25 26 27 28 29 30 31 32 33 34 35 36 37 38 39 40 41 42 43 44 45 46 47 48 49 50
687
ASUS43 KLMK 261602
RWRKY
KENTUCKY REGIONAL WEATHER ROUNDUP
NATIONAL WEATHER SERVICE LOUISVILLE KY
1200 PM EDT TUE JUL 26 2016

NOTE "FAIR" INDICATES FEW OR NO CLOUDS BELOW 12,000 FEET
WITH NO SIGNIFICANT WEATHER AND/OR OBSTRUCTIONS TO VISIBILITY.

KYZ001>023-026-027-061>063-070>075-261700-
WESTERN AND SOUTH CENTRAL KENTUCKY

CITY           SKY/WX    TMP DP  RH WIND       PRES   REMARKS
PADUCAH        SUNNY     88  75  65 S3        30.01S HX  97
HENDERSON      PTSUNNY   84  75  74 W3        30.01S HX  92
OWENSBORO      CLOUDY    84  77  80 NW6       30.03S HAZE    HX  93
HOPKINSVILLE   SUNNY     89  76  67 VRB3      30.03S HX 100
BOWLING GREEN  MOSUNNY   90  75  61 SW5       30.03S HX 100
GLASGOW        NOT AVBL
$$

KYZ024-025-028>034-038-045-046-053-261700-
NORTH CENTRAL KENTUCKY

CITY           SKY/WX    TMP DP  RH WIND       PRES   REMARKS
LOUISVILLE/SDF PTSUNNY   88  71  57 W7        30.02S HX  94
LOUISVILLE/LOU MOSUNNY   87  71  58 VRB5      30.03S HX  93
FORT KNOX      MOSUNNY   86  74  67 VRB5      30.03R HX  95
$$

KYZ035>037-039>044-047>052-055>060-089>105-261700-
NORTHEAST KENTUCKY

CITY           SKY/WX    TMP DP  RH WIND       PRES   REMARKS
LEXINGTON      SUNNY     86  73  65 SW5       30.06S HX  93
COVINGTON      PTSUNNY   86  73  65 N6        30.05S HX  93
FRANKFORT      SUNNY     86  72  62 SW6       30.04S HX  92
$$

KYZ054-064>069-076>088-106>120-261700-
SOUTHEAST KENTUCKY

CITY           SKY/WX    TMP DP  RH WIND       PRES   REMARKS
JACKSON        SUNNY     84  72  67 VRB5      30.09S
LONDON         SUNNY     86  70  58 S6        30.08F HX  90
SOMERSET       SUNNY     86  72  62 CALM      30.08S HX  92
MIDDLESBORO    PTSUNNY   87  74  64 CALM      30.09S HX  95
MONTICELLO     SUNNY    N/A N/A N/A W8        30.08S
$$





USA.gov is the U.S. government's official web portal to all federal, state and local government web resources and services.